Starlink 6321

operational
NORAD ID: 57340 Int'l Des: 2023-099 Owner: SPXS Country: US Constellation: starlink
LEOCIRCULAR

Über Starlink 6321

Beschreibung wird geladen...

Live-Position

3D-Globus wird geladen...

Nächste Überflüge

Höhenverlauf

Altitude vs Time

uPlot chart will show altitude changes over time

Zweizeiliger Elementsatz

1 57340U 23099N 25258.02823729 -.00000270 00000-0 -49250-5 0 9993
2 57340 43.0033 123.3724 0001001 268.6345 91.4383 15.02533478119694
Epoch: 15. Sept. 2025 • Age: 24 hours

Aktueller Status

Höhe 562.4 km
Geschwindigkeit 7.59 km/s
Subsatellitenpunkt 41.07°N, 176.9°E
Startdatum 16. Juli 2023
Alter 2.1 years
Typ internet

Technische Details

Klassifizierung Payload
Masse 305.00 kg
Trockenmasse 290.00 kg
Gesamtmasse 305.00 kg
Länge 0.20 m
Durchmesser 2.80 m
Spannweite 9.00 m
Form Box + pan
Hersteller SPXS
Bus-Typ Starlink
Phasenstatus In Orbit
Besitzer/Staat SPXS/US

Große Konstellationen

Loading constellations...